ECMWFFLT1_500_spd_036.txt.gz
Wind_Speed
30 33 34 33 32 33 34 33 32 31 29 28 29 30 32 33 34 34 35 35 38 42 46 52 59 67 75 83 89 94 99 103 105 105 105 106 107 107 106 106 105 103 101 100 99 98 96 90 84 84 85 85 86 88 88 86 85 84 82 81 80 79 79
30 32 33 32 33 34 33 31 30 29 28 27 27 28 29 30 31 32 32 33 34 36 39 43 49 56 63 72 80 86 92 98 102 103 104 104 106 107 106 106 105 104 103 102 101 101 100 98 93 88 86 86 84 84 85 86 86 85 82 81 81 80 78
29 31 32 32 33 32 29 28 27 28 28 27 26 26 27 28 29 30 30 30 31 32 34 37 41 46 52 61 69 76 83 90 96 100 102 103 104 106 106 106 106 105 104 103 103 102 102 103 102 99 97 96 94 91 91 92 91 90 86 83 81 80 80
29 30 31 31 30 28 25 25 26 27 28 26 25 25 26 27 28 28 28 28 29 30 31 33 35 39 44 50 58 65 73 80 88 94 99 101 101 103 105 106 106 106 105 105 104 103 102 103 105 105 106 106 104 101 99 98 97 95 93 89 86 83 81
30 30 30 29 27 26 26 27 27 27 26 25 24 24 25 26 27 27 27 27 27 28 29 31 33 35 39 43 48 54 61 68 77 85 93 97 99 100 101 104 106 106 106 106 105 104 102 101 102 104 106 108 107 105 103 101 99 99 98 95 92 88 84
28 29 28 27 27 27 28 28 27 26 25 24 22 22 24 25 26 26 27 27 27 27 28 30 32 35 38 40 43 46 50 57 65 74 83 90 95 97 98 100 103 105 106 106 106 106 104 102 100 99 100 102 103 103 103 101 100 100 99 97 93 89 85
27 27 27 27 28 28 27 26 25 24 24 23 22 21 22 24 25 26 27 27 27 27 29 31 33 36 37 38 39 41 44 49 55 63 71 79 87 92 95 97 100 103 105 106 107 107 107 106 105 102 99 96 96 97 98 98 97 97 97 96 92 88 85
25 26 26 27 26 25 23 23 23 23 23 23 21 21 22 23 25 26 27 27 27 29 31 33 34 36 37 37 38 40 41 44 49 54 61 68 76 83 89 94 96 99 102 104 107 108 108 108 108 109 106 102 98 95 93 92 92 93 94 95 93 90 87
24 25 25 24 24 23 22 22 23 23 23 22 21 20 21 22 24 25 26 27 28 30 32 33 35 37 37 37 38 38 40 42 45 49 53 58 65 72 80 87 92 95 98 101 104 107 108 109 110 111 111 110 106 100 95 91 90 90 91 93 94 93 91
22 23 22 23 23 22 22 22 22 23 22 22 21 20 21 22 23 23 24 25 27 29 30 32 34 36 37 36 36 36 37 39 42 45 47 51 55 62 69 77 84 90 94 98 101 104 106 108 109 110 111 112 111 108 104 100 96 93 92 93 93 94 94
20 21 22 22 22 22 21 21 22 23 22 22 21 20 20 21 22 22 23 24 26 27 29 30 32 34 35 35 35 34 34 34 36 39 42 45 48 53 59 66 73 81 87 92 96 100 102 105 107 108 109 110 111 111 110 108 106 103 101 98 96 95 95
18 20 21 21 21 21 21 21 22 22 23 22 21 21 20 21 22 23 24 24 25 26 28 29 30 31 32 33 33 33 32 31 31 33 35 39 42 46 51 56 62 68 75 82 89 93 97 100 102 105 106 108 109 109 109 108 109 109 108 106 104 101 99
16 17 19 20 20 20 20 20 21 22 22 22 22 21 21 21 22 23 25 25 26 27 28 28 29 29 30 31 32 32 32 31 30 30 31 33 35 38 42 46 51 57 63 70 78 84 89 93 97 100 102 104 105 106 107 106 105 105 106 107 107 105 104
14 15 17 18 19 20 20 21 21 22 22 22 22 22 22 22 23 24 25 26 27 27 28 29 29 29 29 30 31 31 32 32 31 31 31 31 30 31 33 38 43 48 53 59 66 73 79 85 89 93 97 100 102 103 104 104 102 101 101 101 102 102 101
12 14 16 17 19 20 21 22 22 22 22 22 23 23 22 23 23 24 25 26 28 29 29 29 30 29 29 29 30 30 31 31 32 32 32 31 30 29 29 31 35 40 45 50 55 61 68 73 79 83 87 91 96 99 100 101 100 99 98 97 98 98 96
9 11 13 15 16 18 19 20 20 21 22 22 23 23 23 23 24 24 25 26 27 29 29 30 30 30 30 29 29 30 31 31 31 31 31 31 30 29 28 28 29 33 38 43 46 51 56 62 69 75 76 77 84 90 94 96 97 97 96 95 94 95 93
6 7 9 10 12 13 15 16 17 19 20 22 23 23 23 23 23 25 26 26 26 27 28 29 29 30 30 30 30 31 31 32 32 31 31 30 29 29 29 28 27 29 32 36 41 45 50 55 64 72 70 65 69 77 82 86 89 90 92 91 90 89 88
5 6 6 7 8 9 10 12 14 15 17 19 20 22 23 23 23 23 25 26 25 24 24 26 27 28 30 31 31 32 32 32 32 32 31 30 30 29 28 28 28 28 29 31 35 40 45 52 61 70 69 61 60 65 69 72 75 79 83 86 87 86 84
8 8 8 7 8 8 9 9 10 11 12 14 16 18 19 20 20 21 23 24 24 24 24 25 27 28 29 30 31 32 32 32 32 32 31 31 31 29 28 28 29 29 28 29 31 35 40 47 57 68 71 63 58 58 61 65 69 71 75 79 82 84 83
10 10 9 9 9 9 9 10 11 11 11 11 12 14 15 16 17 18 20 22 23 24 25 26 27 27 28 28 29 30 30 31 32 31 31 32 31 30 29 30 31 31 30 29 29 31 36 42 51 64 72 67 60 59 61 65 68 69 70 73 76 77 80
12 11 10 9 8 8 8 9 9 11 12 12 12 12 12 13 14 15 16 18 20 22 23 24 25 25 26 27 27 28 29 30 31 31 30 31 31 31 32 32 31 32 33 32 30 30 32 37 45 58 70 70 62 60 61 64 66 66 67 69 71 71 74
13 12 11 10 10 9 9 9 8 8 8 10 11 11 11 12 13 14 14 16 17 19 20 22 23 24 24 25 26 27 28 29 30 31 30 30 31 32 33 33 33 33 34 33 33 32 32 33 37 47 62 70 67 62 61 62 64 65 65 66 67 68 70
15 14 12 10 9 9 9 9 8 8 7 5 5 7 8 10 11 11 12 13 14 15 16 18 20 21 23 23 24 25 27 28 29 30 31 30 30 32 33 34 34 35 35 35 35 35 34 33 33 37 48 61 68 68 66 64 63 64 66 67 68 69 70
15 13 11 9 8 7 8 7 7 7 7 6 5 3 2 2 2 3 4 4 5 6 8 10 13 15 17 18 19 20 22 24 26 28 29 29 29 31 33 34 34 35 36 36 37 37 36 35 35 35 37 44 54 62 67 69 69 67 66 66 68 70 72
15 12 10 8 8 8 8 7 6 6 6 6 6 5 4 4 3 2 2 2 3 4 5 7 8 9 10 12 14 15 16 18 19 21 23 25 26 28 32 33 34 35 36 37 37 38 38 38 38 39 39 40 43 48 54 61 66 69 70 69 69 70 71
16 14 10 8 7 8 8 8 7 7 6 5 4 3 3 2 1 0 2 3 5 6 8 9 9 10 10 10 11 12 13 14 15 17 18 19 20 22 25 27 29 32 34 36 38 39 41 41 41 41 43 44 44 44 46 49 53 58 63 67 69 71 72
17 15 12 8 7 7 7 8 8 7 5 4 4 3 2 1 1 1 1 2 3 4 6 7 9 10 12 12 13 13 14 14 15 16 17 18 19 20 21 22 24 26 28 32 35 38 41 42 44 45 45 46 46 47 47 48 49 50 52 55 60 64 67
18 17 14 11 8 7 7 7 8 7 5 4 3 2 1 1 2 2 2 2 3 4 5 7 8 9 10 11 12 14 15 16 17 17 18 19 20 21 22 22 23 24 25 27 29 32 35 38 41 44 46 48 49 49 50 51 51 51 51 51 52 54 57
19 18 17 14 11 8 7 7 6 6 5 4 2 1 2 2 2 2 3 3 4 5 6 7 8 9 9 10 10 11 12 14 15 17 18 19 20 22 23 24 24 25 26 27 28 29 31 33 36 38 41 43 45 47 49 51 52 52 52 53 53 54 54
20 19 17 15 13 11 9 8 7 6 5 4 3 3 3 3 2 3 3 4 4 5 5 6 6 7 8 9 10 10 10 10 11 13 14 15 17 18 20 22 24 25 26 27 29 30 31 32 33 35 36 37 39 42 44 46 48 50 51 52 53 54 54
20 20 18 15 13 11 10 8 7 6 5 4 3 3 2 1 2 2 3 4 4 4 5 7 7 7 6 7 7 7 7 8 8 9 9 10 11 12 13 16 19 22 25 27 29 30 31 32 34 35 35 37 38 39 39 40 42 44 46 48 50 52 53
19 19 19 17 14 11 9 8 7 6 4 3 2 1 1 2 3 3 4 4 4 5 5 6 7 7 7 6 6 6 6 7 7 7 7 8 9 10 10 10 12 15 19 23 27 29 31 32 34 35 36 37 37 38 38 39 39 40 42 43 45 46 48
18 18 18 17 15 12 9 8 7 7 7 6 6 6 6 6 5 5 5 5 5 5 5 6 6 6 6 5 5 4 5 5 6 6 7 7 8 9 9 9 8 9 11 15 21 25 27 29 31 32 34 36 36 37 37 38 39 40 41 42 42 43 43
19 19 18 16 14 12 10 9 9 8 8 9 10 10 10 9 8 6 5 5 5 5 5 5 5 6 6 5 4 3 3 3 4 4 4 5 5 6 8 8 8 7 7 7 11 16 21 25 27 29 31 32 34 34 35 36 38 39 41 42 42 41 41
23 22 19 15 12 11 10 9 9 9 9 9 9 9 9 8 7 7 7 6 6 5 5 5 5 6 7 6 5 3 2 2 2 2 2 2 2 3 4 5 6 6 6 4 3 6 11 17 21 23 25 26 26 27 28 29 31 33 36 39 40 40 39
25 22 18 14 11 10 10 9 9 10 9 9 9 8 7 6 5 6 7 6 6 5 5 5 5 6 6 7 6 5 3 2 1 0 0 0 0 0 1 1 1 2 3 2 1 1 2 5 9 13 16 18 19 19 19 20 20 21 25 29 33 35 36

ECMWFFLT1_500_spd_042.txt.gz
Wind_Speed
25 25 24 22 21 20 20 20 21 22 23 24 24 25 26 28 31 33 35 37 40 43 46 50 54 58 62 67 73 78 84 91 98 105 111 115 119 121 123 125 125 123 120 116 114 114 113 113 111 110 108 106 105 103 100 98 95 92 88 86 86 85 82
26 25 24 22 21 20 20 20 20 20 20 20 19 20 22 25 26 27 28 30 32 34 37 40 42 45 49 54 59 64 69 75 81 89 96 103 109 114 118 122 124 125 124 120 118 116 116 116 114 112 110 108 107 105 103 101 98 95 92 89 88 88 85
26 26 25 23 21 20 20 21 21 20 20 19 19 20 22 24 24 25 27 28 29 31 33 34 36 38 40 44 47 51 56 61 67 73 80 87 95 102 108 113 117 121 123 123 122 120 118 118 117 115 113 111 109 107 106 103 101 99 96 93 90 88 86
25 25 25 25 23 21 20 20 21 20 20 20 19 20 22 23 25 26 27 28 29 30 31 33 34 35 36 38 40 42 46 49 53 59 65 71 78 86 93 100 106 111 116 120 122 122 121 120 120 119 116 114 112 110 108 106 104 102 99 96 94 90 87
22 24 25 25 24 22 20 19 20 20 21 19 19 19 21 23 24 24 24 25 26 28 30 32 33 34 35 35 36 37 38 40 43 47 52 57 63 69 76 84 91 98 105 110 115 119 120 120 121 121 120 118 115 113 111 109 107 105 102 99 97 94 90
19 22 24 24 23 21 19 18 19 21 21 19 18 18 20 20 20 19 19 21 23 25 28 30 33 34 34 34 34 34 35 36 38 41 44 48 52 57 63 69 76 84 91 98 105 111 115 117 119 120 121 120 118 115 113 112 110 108 105 102 99 96 93
14 17 20 21 20 18 17 18 19 20 20 18 17 17 18 17 17 16 17 19 21 24 27 29 31 33 33 33 33 33 34 35 36 37 39 42 45 49 54 59 65 71 78 86 93 100 106 110 113 115 118 120 120 118 116 114 112 110 108 105 102 97 94
8 11 13 15 16 16 16 17 19 19 17 16 16 16 16 16 16 16 17 19 21 24 26 28 30 31 32 32 32 33 34 35 35 35 35 37 40 44 47 51 55 60 67 75 81 88 95 100 104 108 112 116 118 118 117 116 114 112 110 107 105 102 97
2 5 8 10 12 14 15 16 17 16 15 15 16 16 16 16 16 17 18 19 20 23 25 27 29 31 32 32 32 33 33 34 33 33 33 35 37 40 42 44 47 51 57 63 70 77 84 90 95 100 105 109 112 114 115 116 116 114 112 110 107 106 102
2 2 5 8 10 12 13 14 14 14 15 15 16 16 16 17 17 17 18 19 20 22 24 26 28 30 32 32 32 33 33 33 32 32 32 33 34 36 37 38 41 44 48 53 59 65 72 80 86 91 96 101 104 107 110 113 115 114 113 112 109 108 107
4 3 4 6 8 10 11 12 13 14 15 16 17 17 17 18 18 18 19 20 21 22 24 25 27 29 31 32 32 33 32 32 32 32 32 33 33 33 34 35 36 38 41 45 50 55 62 70 76 82 88 93 95 98 102 106 110 113 112 113 112 109 107
6 5 5 6 8 9 11 13 14 15 16 17 18 18 19 19 19 20 20 21 21 22 23 25 26 28 30 31 32 32 33 33 33 34 33 33 33 33 34 34 34 35 37 40 43 48 54 61 67 74 83 88 89 90 94 98 102 107 109 110 111 111 109
8 7 7 8 9 11 12 14 16 17 18 19 19 20 20 21 21 21 21 22 22 22 23 24 25 28 30 31 31 31 32 32 33 34 34 33 33 33 34 34 34 34 35 37 39 43 48 53 59 65 75 84 88 87 88 90 92 97 103 106 107 109 109
10 10 9 10 11 13 14 16 17 19 20 21 21 22 22 22 22 22 22 22 22 22 22 23 25 27 29 30 30 30 30 31 32 33 33 33 32 32 32 32 32 33 33 34 36 38 41 46 52 58 65 77 87 89 86 87 89 90 92 97 102 105 107
12 11 11 11 12 13 14 16 18 19 20 21 22 23 23 24 24 24 24 23 23 23 23 23 24 26 28 29 28 28 28 29 30 31 31 30 30 29 29 29 29 30 31 32 33 33 36 39 45 51 58 67 80 89 88 86 88 89 89 90 94 100 105
15 13 12 12 12 12 14 15 16 18 20 21 22 23 24 25 25 26 25 25 24 24 23 22 23 25 27 28 28 28 28 28 29 28 28 27 27 26 26 26 27 28 29 30 31 31 33 35 39 44 51 58 68 81 89 90 87 88 91 91 91 93 99
16 15 15 14 13 12 12 13 14 16 18 19 21 22 23 24 25 26 25 25 24 24 23 22 22 24 27 28 28 28 28 29 28 27 26 26 26 26 26 26 27 28 28 28 29 30 31 33 35 38 43 49 57 67 81 90 90 88 89 92 93 92 93
15 15 15 15 14 13 12 11 11 12 14 17 18 19 20 21 21 22 23 23 23 22 23 22 21 22 25 27 28 29 29 28 27 26 25 26 26 26 26 26 28 29 29 28 28 28 29 31 33 34 36 41 47 55 65 78 87 90 90 90 92 94 95
14 14 15 15 14 13 12 12 11 11 11 12 15 17 18 18 18 18 18 20 21 22 22 22 21 21 23 25 28 30 29 28 26 25 25 26 26 25 24 26 30 31 31 30 29 28 28 29 31 34 35 37 41 46 52 62 73 84 90 92 92 93 96
15 13 13 14 14 13 12 12 11 11 11 11 12 14 16 16 15 15 15 16 18 20 21 21 21 21 21 23 26 28 28 28 26 26 26 27 26 24 24 27 31 33 33 33 31 30 29 29 30 33 35 37 39 42 46 51 59 67 77 85 91 94 96
17 13 12 12 12 12 12 12 11 11 10 11 11 10 12 13 12 11 11 12 14 16 17 19 19 20 21 22 23 24 26 27 27 27 28 27 26 25 27 29 31 31 32 33 33 32 31 31 31 32 33 35 36 38 41 45 50 56 62 69 78 85 90
20 15 12 12 12 12 13 13 12 11 10 11 11 9 6 9 10 9 9 9 10 11 13 14 16 17 18 20 21 22 24 26 27 27 28 27 27 28 30 30 30 30 31 32 32 32 32 31 32 32 32 32 33 34 36 39 43 49 54 59 65 70 77
23 20 17 14 13 13 13 14 13 12 11 10 11 10 7 3 6 8 8 9 9 9 10 11 12 14 15 17 19 20 22 24 25 26 26 26 27 29 30 31 31 31 31 31 30 31 31 31 32 32 32 32 32 32 32 33 36 40 46 52 57 61 66
24 23 21 19 17 15 14 15 15 14 12 11 10 9 8 6 3 1 3 4 5 6 7 8 9 11 13 15 17 19 20 22 23 24 24 25 26 28 30 31 31 31 31 31 31 31 31 32 32 33 33 33 33 33 32 32 32 34 38 43 48 53 58
25 24 23 21 19 18 16 15 15 14 13 11 10 8 8 7 6 5 4 3 2 1 1 2 3 5 8 10 13 15 17 19 21 22 23 24 26 28 30 30 31 31 32 31 31 31 32 32 33 34 34 34 34 34 34 34 33 32 32 35 39 44 50
25 25 24 21 20 19 18 16 15 14 12 10 8 7 7 6 6 6 6 5 4 4 3 2 1 2 4 5 7 10 11 13 16 18 20 22 24 27 28 29 30 31 31 31 31 32 33 33 34 35 35 36 36 36 36 35 34 32 31 30 32 36 42
24 25 25 23 21 19 17 16 14 13 11 9 7 6 5 5 6 6 5 5 5 4 3 2 2 1 2 4 6 7 9 10 11 12 14 16 18 20 23 25 26 28 30 31 32 34 35 35 35 36 37 38 38 37 37 36 36 34 33 31 30 31 35
24 24 24 24 22 19 17 15 13 11 10 8 7 6 5 5 5 5 5 5 4 4 3 3 3 3 3 4 5 7 8 10 11 12 13 14 15 16 17 19 21 23 25 27 30 32 34 35 36 37 38 39 38 38 38 38 37 36 35 33 31 30 30
25 25 24 24 23 21 18 14 12 10 9 7 6 6 5 5 5 6 6 6 5 4 3 3 4 5 5 4 5 6 7 9 11 13 14 15 16 17 18 18 19 20 21 22 24 25 27 30 33 35 37 38 38 38 38 38 38 37 36 35 34 32 30
25 25 25 24 24 23 20 15 12 10 9 7 6 6 6 6 6 6 7 6 6 5 5 5 6 7 7 6 5 5 6 8 10 12 13 14 16 18 20 21 21 22 22 23 22 22 24 26 28 30 32 34 35 36 37 38 38 38 37 36 36 35 33
26 25 25 24 23 23 21 16 12 10 10 9 7 7 6 6 7 7 8 7 7 6 6 6 7 7 8 7 6 5 5 6 8 10 11 13 14 15 17 19 20 22 23 24 24 24 25 26 26 27 28 29 31 32 34 36 37 37 37 37 37 36 35
25 24 23 23 22 21 19 16 12 11 10 10 9 8 7 7 8 8 8 8 8 7 7 7 8 8 8 7 6 6 6 6 7 8 10 11 12 14 15 17 18 19 20 21 22 24 26 27 27 28 28 29 29 30 31 31 33 34 35 36 37 37 37
22 22 21 21 20 17 15 14 13 12 11 11 11 10 9 8 9 9 9 8 8 7 7 8 8 8 7 7 6 6 6 6 7 8 9 9 10 11 13 15 17 18 18 19 19 20 22 24 26 28 29 30 31 31 31 31 31 31 32 33 34 36 37
22 22 21 19 17 14 12 12 12 12 12 12 13 12 11 9 10 10 10 8 7 7 8 8 8 8 7 7 6 7 7 7 7 8 8 9 9 9 10 12 15 17 18 19 19 19 19 20 22 25 28 30 32 32 32 32 32 31 30 31 32 33 34
22 22 20 18 15 12 11 12 12 12 12 13 13 14 13 11 11 11 10 9 7 7 8 8 8 7 7 7 7 7 7 6 6 6 8 8 9 9 8 9 11 13 15 17 19 19 19 19 19 21 24 28 31 33 33 33 33 32 32 31 32 33 33
21 20 18 16 15 13 12 12 12 12 13 14 14 15 14 13 13 13 12 10 8 7 8 8 7 7 8 8 8 8 7 7 6 6 6 7 8 9 9 9 9 9 11 12 14 16 18 18 18 18 20 24 27 30 32 33 34 34 34 34 35 35 34

ECMWFFLT1_500_spd_048.txt.gz
Wind_Speed
24 23 21 21 22 23 24 26 27 26 24 23 23 25 27 28 30 32 34 36 40 46 52 58 65 74 84 94 103 110 116 119 119 118 117 115 115 115 115 115 115 114 112 111 111 111 109 109 109 108 107 106 104 102 101 99 98 96 96 95 94 93 92
23 21 17 15 16 17 19 20 21 21 19 19 20 22 22 23 24 25 27 29 32 37 42 47 52 59 68 78 87 96 103 109 113 116 117 117 117 116 116 116 116 116 114 112 111 111 109 109 110 110 109 108 107 105 104 103 101 100 99 98 97 95 94
22 20 17 14 12 13 14 15 16 17 16 17 17 18 18 18 19 19 21 23 25 29 33 37 42 48 55 63 71 79 88 95 101 106 111 114 116 117 117 117 117 117 115 113 112 111 110 109 109 109 109 109 108 108 107 105 104 103 102 101 100 98 97
22 20 17 14 12 11 12 12 13 14 14 15 15 16 16 16 16 16 16 16 18 20 24 28 33 38 43 50 56 64 72 80 87 94 100 105 110 113 114 115 116 117 116 115 113 112 111 111 110 110 109 109 109 109 108 107 106 105 105 104 102 101 99
23 21 18 15 13 11 11 10 11 11 12 13 14 15 16 15 15 15 14 13 13 13 15 19 23 28 33 37 43 49 55 62 70 77 84 91 97 102 105 108 111 113 115 116 115 114 113 113 113 113 112 111 111 111 109 108 107 107 107 106 105 103 102
23 22 20 17 14 11 10 9 9 9 10 11 14 16 16 16 15 15 14 13 12 11 11 12 15 19 23 27 31 35 41 46 53 60 66 73 79 85 90 95 100 104 108 111 112 113 113 114 114 114 114 114 114 114 113 112 111 111 110 109 108 106 105
23 22 20 18 16 13 10 8 8 9 10 11 13 15 17 16 15 14 14 14 13 12 11 11 12 13 15 18 21 25 29 34 39 45 51 56 62 68 74 79 85 90 95 100 104 106 109 110 112 113 114 115 116 116 115 114 114 113 113 112 111 109 108
24 22 20 19 17 14 12 10 8 9 10 11 12 14 15 16 15 14 14 14 14 14 13 12 13 13 14 15 16 18 20 23 26 31 35 40 46 51 57 62 68 73 78 84 90 95 98 102 104 107 109 112 114 114 114 114 114 115 115 114 114 112 111
25 23 21 20 18 15 13 11 10 9 9 10 11 12 13 14 14 13 13 14 14 14 14 14 15 15 16 16 17 18 19 20 22 24 26 29 33 36 40 45 49 54 60 66 72 78 83 88 93 96 99 103 107 109 110 113 115 116 116 116 115 114 113
23 23 22 21 19 17 15 13 11 10 10 10 10 10 11 12 12 13 13 13 14 14 15 15 16 16 17 18 19 20 21 22 23 24 25 27 28 30 32 34 37 40 44 48 54 59 65 72 77 81 85 90 96 101 105 109 112 114 116 117 117 116 115
22 21 21 22 21 19 17 15 13 12 11 11 11 11 11 12 12 13 13 13 14 14 15 15 16 17 18 19 20 20 21 22 23 24 25 26 27 28 29 30 31 33 35 37 40 44 49 55 59 63 68 74 80 86 92 98 103 107 111 114 117 117 116
25 22 21 21 22 21 20 18 15 14 13 13 12 12 13 13 14 14 14 14 14 15 15 16 16 17 18 18 19 20 21 22 23 24 24 25 26 26 27 27 28 30 31 32 34 36 40 42 45 49 53 57 63 69 75 82 88 93 99 105 110 114 114
27 25 23 21 22 22 21 20 18 15 14 14 14 14 15 15 15 15 15 15 15 16 16 17 17 18 18 19 19 20 20 21 23 24 25 25 26 26 26 26 27 28 29 30 31 32 34 36 38 40 42 45 49 55 62 68 73 77 83 90 97 102 107
26 26 25 23 22 21 21 21 20 18 16 14 14 15 16 17 17 17 17 18 18 18 18 19 19 20 20 20 20 20 21 22 22 24 25 26 26 26 26 26 26 26 27 29 30 30 30 32 34 36 37 39 42 46 52 58 60 64 69 76 83 89 96
25 26 26 24 22 21 20 20 20 20 18 16 15 14 15 16 18 19 19 20 20 20 21 21 21 22 22 22 22 22 22 22 23 25 26 26 26 26 26 26 25 26 27 29 29 29 29 30 31 32 32 34 36 39 43 47 50 53 58 64 71 77 83
24 25 26 25 24 22 21 19 19 20 20 19 17 16 16 15 16 18 20 21 21 22 22 23 23 23 23 23 23 23 23 23 24 25 26 26 25 25 25 25 26 27 28 28 28 28 28 29 29 29 29 29 30 31 34 37 40 43 46 52 58 64 69
23 24 25 25 25 24 23 21 19 19 20 20 19 18 18 17 17 17 18 21 22 23 24 24 24 24 24 25 25 24 24 24 25 25 26 26 25 25 25 25 26 27 28 28 28 28 28 29 29 29 28 28 28 28 29 32 34 35 37 40 45 51 56
23 24 24 25 25 25 25 23 21 19 19 19 18 18 18 18 19 19 18 19 22 24 25 25 25 25 25 25 26 26 26 26 26 26 26 25 25 24 24 25 26 26 27 28 28 28 29 29 29 29 28 28 28 29 29 30 30 31 32 33 35 39 43
24 25 25 25 25 25 25 24 23 21 19 19 18 17 17 18 19 20 20 18 19 22 24 24 25 25 25 25 26 27 27 27 26 26 26 25 24 24 23 24 26 26 27 28 28 28 29 29 29 30 30 29 30 30 30 29 30 30 30 30 30 32 35
24 25 25 25 25 25 25 25 24 23 21 20 18 17 17 17 18 19 19 16 15 17 20 22 22 23 23 24 24 25 26 26 26 25 25 25 24 23 24 26 27 28 28 28 28 29 29 29 29 30 31 31 31 31 30 30 30 30 29 29 30 30 31
25 26 26 26 25 25 25 25 25 24 23 21 20 18 17 16 17 17 17 13 11 12 14 16 18 19 20 21 22 23 24 25 25 24 24 25 24 24 26 28 28 29 28 28 28 28 28 29 29 30 31 31 31 31 30 29 29 29 29 30 30 30 30
27 28 28 28 27 26 26 26 25 25 24 22 20 18 17 16 15 15 14 11 8 9 11 12 13 15 17 18 20 21 22 23 24 24 24 25 25 25 27 28 29 29 29 28 28 28 28 28 29 30 30 31 31 30 29 28 27 27 28 29 29 29 30
30 30 30 30 30 29 28 27 27 26 25 23 21 18 17 16 15 13 12 11 8 8 9 10 11 12 13 15 16 18 20 21 22 23 24 25 25 26 27 29 30 30 30 29 29 29 28 28 28 28 29 29 30 30 29 28 26 26 27 26 25 27 30
32 32 32 32 32 32 31 30 29 28 26 23 21 18 16 15 14 12 10 9 8 7 7 8 9 10 11 12 13 14 16 18 20 21 23 25 26 26 28 29 30 30 30 30 30 29 29 28 28 27 28 28 28 29 29 28 28 27 26 24 24 25 28
31 32 32 32 32 32 32 31 29 28 26 24 21 18 16 15 13 12 10 9 8 7 6 6 7 7 8 9 10 11 13 14 16 18 20 23 25 26 27 28 29 30 30 31 30 30 29 28 28 28 28 28 28 28 28 28 28 29 28 26 25 25 26
29 28 28 28 28 28 28 28 27 26 25 24 21 18 16 14 13 12 11 10 8 7 7 6 6 6 6 6 7 8 9 11 13 14 17 19 22 24 25 26 27 28 29 29 29 29 28 28 28 29 30 29 29 29 28 28 29 30 30 29 28 26 25
28 26 25 25 24 24 24 24 24 24 23 23 21 19 17 15 14 13 12 11 10 9 8 7 7 6 6 6 6 7 8 9 10 11 13 16 18 20 22 23 24 25 26 26 26 26 27 28 29 31 31 31 31 30 29 29 30 31 30 30 29 29 28
28 27 25 24 24 24 24 24 24 23 22 22 21 19 18 17 15 14 13 13 12 11 10 9 8 8 7 7 7 7 8 9 9 11 12 14 16 17 19 20 22 23 24 25 25 26 26 27 29 30 31 32 32 31 31 31 31 32 31 30 30 30 29
27 27 26 25 25 24 24 25 25 24 22 21 21 20 19 19 18 16 15 14 14 13 12 11 11 10 10 9 9 9 10 10 10 11 12 14 15 17 18 19 20 21 22 23 24 25 27 28 29 29 30 30 31 30 31 32 32 33 33 32 31 30 30
26 26 26 25 26 25 25 24 25 25 24 23 21 20 20 20 20 19 17 16 16 15 15 13 13 12 12 12 12 12 12 11 11 12 13 14 15 17 18 19 19 20 20 21 21 22 24 26 26 28 29 30 30 30 30 31 32 32 33 33 32 31 31
25 26 26 25 25 25 25 25 24 24 24 23 22 21 20 21 22 21 19 18 17 17 17 16 14 14 14 14 14 14 13 12 11 12 13 14 16 17 17 18 19 20 20 21 21 21 22 23 23 24 26 27 29 30 31 32 32 32 32 32 32 32 31
24 24 25 25 25 24 24 24 24 23 22 22 22 21 19 19 22 22 21 19 19 18 18 17 16 15 15 15 15 15 15 13 12 12 13 15 16 17 17 17 18 19 20 21 22 22 23 23 22 22 23 24 26 27 28 29 30 30 31 31 31 31 31
23 23 23 23 23 23 23 23 23 22 21 20 20 20 19 18 20 22 22 21 20 19 19 18 16 16 16 16 16 16 16 15 14 13 13 14 15 16 17 18 18 18 19 20 21 22 23 23 23 22 23 25 25 25 26 26 26 26 27 28 29 30 31
20 21 21 22 22 23 23 22 22 21 21 20 20 20 19 18 19 21 22 22 21 20 19 18 17 16 16 16 17 17 18 17 15 14 14 14 14 15 16 17 18 18 18 19 20 21 22 22 22 22 23 25 26 26 26 25 25 25 24 24 26 27 29
22 20 21 22 22 22 22 22 21 20 19 19 20 20 19 19 19 20 21 22 22 22 21 19 18 17 16 17 17 18 18 18 17 16 16 15 15 14 14 15 16 18 18 19 19 20 20 21 22 22 23 24 25 25 25 25 24 24 24 24 25 27 28
25 23 22 22 22 23 23 22 22 20 18 18 19 20 19 19 19 20 21 22 22 23 23 22 20 18 17 17 18 18 19 19 18 18 17 17 16 16 15 14 15 16 18 19 19 19 19 20 21 22 23 24 24 25 25 25 24 24 23 24 25 27 28

ECMWFFLT1_500_spd_051.txt.gz
Wind_Speed
24 24 24 23 22 20 20 19 20 21 23 24 26 28 29 31 32 34 36 39 42 43 44 45 47 49 52 56 62 69 78 88 98 107 114 117 118 117 116 114 112 110 106 104 105 106 105 105 106 105 104 103 102 101 100 99 98 97 96 95 94 92 91
22 22 23 22 20 18 17 15 15 15 16 17 19 21 23 25 27 30 33 36 38 40 41 41 43 46 49 52 55 60 67 75 84 94 104 113 118 119 119 118 116 114 110 107 106 105 105 106 107 107 106 105 104 104 103 102 100 99 97 96 96 95 94
22 22 21 21 20 18 15 13 12 11 12 13 14 16 18 21 25 28 31 33 34 35 36 36 37 40 44 47 50 54 59 66 73 81 91 101 111 117 119 120 119 117 114 111 108 106 105 105 107 107 107 106 107 107 106 105 103 101 100 98 97 96 95
23 22 21 20 19 18 15 13 11 9 9 11 13 15 18 21 24 26 28 29 30 31 30 31 31 33 36 40 43 47 51 56 63 71 79 88 98 108 114 118 119 119 118 115 112 109 107 106 107 108 108 108 109 109 109 108 106 105 104 102 100 98 97
24 23 22 21 19 18 16 14 11 9 9 11 13 16 19 21 23 25 26 27 27 27 27 27 27 27 28 30 34 38 42 47 52 60 68 76 84 94 103 110 116 119 120 118 116 113 111 109 108 108 108 109 110 111 111 110 109 108 107 105 103 101 100
25 24 24 23 21 18 17 15 13 10 10 11 14 17 19 21 22 23 24 25 25 24 24 24 24 24 24 24 25 28 33 38 43 48 55 63 70 78 88 97 106 113 117 119 118 116 114 113 112 110 109 109 110 111 111 111 111 110 109 108 106 104 103
24 24 24 24 23 21 18 16 14 12 11 12 13 16 18 20 22 23 23 23 23 23 23 23 23 23 23 22 21 21 24 28 33 38 43 50 56 64 72 80 90 99 107 113 116 117 117 116 115 113 111 110 110 110 111 111 111 111 110 109 108 107 106
24 23 24 23 23 22 21 18 16 14 13 12 13 15 17 19 20 21 22 22 22 22 22 22 22 22 22 21 20 19 18 19 22 27 32 37 43 50 57 64 72 81 90 98 106 111 115 116 117 116 114 113 112 112 111 110 110 110 110 110 110 109 109
23 23 22 22 22 22 22 21 18 16 14 14 13 14 15 17 18 19 20 21 22 21 21 22 22 22 21 20 20 19 17 16 16 17 21 25 30 35 42 48 56 63 71 80 89 97 104 110 113 114 114 114 114 113 111 110 111 110 110 110 111 111 111
22 23 22 22 21 21 21 21 20 18 16 15 15 15 15 15 16 18 19 20 21 21 22 22 21 21 20 20 19 19 18 17 15 14 15 17 20 23 28 33 39 45 53 61 70 78 87 96 102 106 109 111 112 113 112 112 113 112 111 111 112 112 111
20 21 22 22 22 21 21 21 20 19 18 17 16 15 16 16 16 17 18 19 20 21 21 21 21 20 20 20 19 19 18 18 17 16 15 15 16 17 19 23 26 31 36 43 51 59 67 76 83 90 96 101 105 108 110 111 112 112 112 113 113 112 111
18 19 20 21 22 22 21 21 21 19 18 17 17 16 16 17 18 18 19 20 20 20 21 21 21 21 20 20 19 19 19 18 18 17 17 16 16 16 16 18 19 22 25 30 36 42 49 56 63 70 77 85 91 97 101 105 108 110 112 113 114 114 112
18 18 19 20 21 21 21 21 21 21 20 18 17 17 17 17 17 18 20 21 21 21 21 21 21 21 21 21 20 20 19 19 18 18 18 18 17 16 16 17 17 19 21 23 26 30 34 39 45 51 57 65 73 80 87 93 98 103 107 110 112 114 114
19 19 19 19 20 21 20 20 20 21 21 20 18 17 16 17 17 17 18 19 21 22 23 22 22 22 23 22 22 21 21 20 20 20 20 19 19 18 18 18 18 19 20 21 23 24 26 29 33 37 41 47 54 61 68 75 82 88 94 99 104 109 112
21 20 20 20 20 22 21 20 20 20 21 21 21 19 17 17 18 18 17 18 19 21 23 24 24 24 25 25 24 24 23 22 22 22 21 21 20 20 20 19 19 20 21 21 22 23 25 27 29 31 34 37 41 45 51 57 63 69 77 84 91 96 101
23 22 22 21 21 22 22 22 21 21 21 22 22 21 20 19 18 18 19 18 19 20 22 25 26 26 27 27 26 26 25 24 24 23 22 22 21 22 22 21 20 21 22 22 23 24 26 28 29 31 33 34 35 37 41 45 49 55 61 68 74 79 84
26 24 23 24 23 23 23 23 23 23 23 23 23 23 22 21 20 19 19 20 20 21 22 24 26 28 28 28 28 28 27 26 25 25 24 23 23 22 22 22 22 22 22 23 24 25 27 29 30 31 32 33 33 35 37 39 42 46 50 54 59 64 68
29 28 26 26 25 25 25 25 25 25 25 25 25 24 24 23 22 21 20 21 22 23 23 24 25 27 28 28 29 28 28 28 27 26 26 25 24 23 22 22 23 24 23 24 25 26 28 29 30 31 32 32 32 33 35 36 38 40 43 45 48 51 54
33 32 30 29 28 27 27 28 27 27 27 27 26 26 25 24 23 22 21 21 22 23 23 22 21 23 26 27 27 28 28 28 27 27 27 26 25 24 23 24 25 25 24 25 26 27 28 29 30 31 31 31 31 32 33 34 34 36 37 38 39 41 44
35 35 34 32 31 30 29 29 30 30 30 29 28 28 27 25 24 23 21 21 22 22 21 18 16 17 20 22 24 25 26 27 27 27 27 27 27 25 25 27 27 26 26 27 27 28 28 29 30 30 30 30 30 31 31 31 32 32 32 32 33 34 35
33 35 35 34 34 33 32 32 32 33 32 31 31 30 28 26 25 24 21 20 20 20 19 16 13 12 14 17 19 21 23 24 26 27 27 28 27 27 27 28 27 26 27 27 27 28 28 28 29 29 28 28 28 29 29 29 29 29 29 29 29 29 30
31 32 33 33 33 34 34 34 34 34 34 34 32 31 29 26 24 23 21 19 18 18 17 15 13 12 13 14 16 18 20 21 23 25 26 26 26 26 27 27 26 26 26 27 27 27 27 26 26 26 26 26 26 26 27 27 28 28 28 28 28 28 28
29 30 30 31 31 31 31 32 32 33 33 33 32 30 28 25 23 22 21 18 16 15 15 13 12 12 12 14 15 16 17 18 20 21 23 24 24 25 26 26 25 25 25 26 26 27 26 25 25 24 24 25 25 26 27 27 27 28 28 28 28 28 28
29 29 28 28 29 29 28 28 28 28 28 27 27 26 25 23 21 21 20 18 15 14 13 12 11 11 11 12 13 14 14 15 16 18 20 21 23 23 24 25 25 25 25 25 26 26 26 26 26 25 25 26 27 28 28 27 27 28 29 30 30 30 29
28 28 28 27 27 27 27 27 26 25 24 23 22 22 22 21 20 20 20 19 16 14 13 12 11 10 10 10 10 11 11 12 13 14 16 18 20 22 23 24 25 25 25 25 25 26 27 27 27 26 27 28 29 29 28 28 29 30 31 32 32 31 30
27 27 27 27 26 26 26 26 26 25 24 22 21 21 20 20 20 20 20 20 18 16 14 13 12 11 10 10 9 9 9 10 10 11 12 15 17 20 22 24 25 25 25 25 25 26 26 27 27 28 29 29 29 29 29 30 31 31 32 32 32 32 32
26 26 27 26 25 25 25 25 25 25 24 23 22 21 20 19 19 20 20 20 20 18 16 15 14 13 12 11 10 9 9 9 9 9 11 12 14 16 19 21 23 24 24 25 25 26 26 27 28 29 30 30 30 30 31 32 32 33 33 33 33 32 33
27 25 26 26 25 25 24 24 24 24 24 24 23 23 22 21 20 20 21 21 21 20 18 17 16 15 14 13 11 10 10 9 9 9 10 11 12 13 15 17 18 20 22 23 24 25 26 27 28 29 30 31 31 32 33 33 33 34 34 34 33 33 32
28 25 25 25 25 24 24 24 25 24 25 24 24 24 24 23 21 20 21 22 22 22 21 19 18 17 16 15 14 13 12 11 10 10 11 11 12 13 13 14 15 16 18 20 21 23 24 25 27 28 29 30 31 31 32 33 33 34 34 34 34 33 32
29 26 25 25 25 24 24 23 24 25 26 26 26 25 25 24 22 21 21 22 23 23 23 21 20 19 18 17 16 15 14 13 12 12 12 12 13 13 14 14 15 15 16 17 18 19 21 22 24 25 27 28 29 29 30 31 32 32 34 34 34 33 32
31 28 25 23 24 25 24 23 23 24 25 26 27 27 26 24 23 22 22 22 23 24 24 23 22 21 19 18 17 16 16 15 14 14 14 14 14 13 13 14 15 16 17 18 18 19 19 20 21 22 23 24 26 27 28 29 30 31 32 33 33 32 31
32 30 27 23 23 24 25 24 23 23 24 25 26 27 26 25 23 23 22 21 22 24 25 24 23 22 20 19 18 18 18 17 17 16 16 16 16 14 13 13 14 16 17 18 19 20 20 21 21 21 22 23 23 24 25 27 28 29 31 32 32 32 31
32 30 28 24 22 23 24 25 24 23 24 24 25 26 26 24 23 22 22 21 21 22 24 25 24 23 21 20 19 18 19 19 19 18 18 18 17 16 15 14 14 15 16 18 19 20 21 21 22 22 22 23 24 24 24 24 25 26 27 28 29 29 30
35 32 29 25 22 22 23 24 24 23 23 23 24 25 25 24 23 22 21 21 21 21 22 24 25 24 22 20 19 19 19 19 20 20 19 19 19 19 17 16 15 16 17 17 18 19 20 21 22 22 22 22 23 25 26 25 25 25 25 25 25 26 27
37 35 32 28 24 21 21 22 22 23 22 23 23 23 24 24 23 22 21 21 21 21 22 23 24 24 23 21 20 19 19 19 20 20 21 21 21 21 20 18 16 17 17 18 19 19 20 21 21 22 21 21 22 24 26 27 27 26 25 25 25 25 25
38 37 35 32 29 25 22 20 21 22 22 22 22 21 22 23 23 22 21 21 21 21 22 22 23 24 24 23 22 21 20 20 21 21 22 22 22 22 22 20 18 18 18 19 19 20 20 21 21 21 21 21 20 22 25 26 27 26 26 25 25 26 26